RH
59 54 54 56 56 57 53 55 58 61 70 80 76 68 71 70 77 76 80 69 66 62 66 69 74 74 73 70 67 65 64 65 72 52 55 51 53 51 74 80 73 64 62
55 56 57 62 60 60 57 63 64 66 62 81 79 79 89 89 79 90 75 68 63 66 69 71 70 69 66 61 60 61 59 59 74 78 66 67 72 71 97 92 76 67 63
54 59 50 39 30 35 54 55 48 54 64 72 81 84 94 94 96 83 75 64 65 68 72 74 68 62 63 65 67 66 64 64 92 98 92 92 93 97 97 95 88 76 70
37 32 29 29 35 42 44 45 46 49 58 70 83 86 100 95 97 78 87 70 71 74 75 66 63 69 73 77 86 88 86 84 76 82 86 96 95 86 94 96 95 84 72
34 30 35 41 47 48 50 53 49 57 73 83 97 98 99 96 85 88 82 75 76 76 65 65 71 74 96 95 100 100 100 89 94 88 92 91 89 87 90 90 94 82 72
31 35 44 48 51 56 62 57 48 65 96 98 81 92 95 96 90 86 81 78 76 65 65 61 58 60 64 80 83 81 94 100 98 98 99 94 87 89 85 90 94 97 81
34 43 48 55 60 65 69 56 52 81 100 97 89 84 84 78 88 87 83 74 67 66 58 53 46 52 63 73 78 86 88 87 93 96 97 96 96 95 98 97 89 95 94
33 40 59 65 70 75 75 67 63 93 80 80 81 77 80 90 94 84 74 69 66 58 49 50 64 72 81 93 99 97 96 94 96 96 95 89 88 88 89 86 98 96 88
29 35 61 72 78 83 85 78 77 83 77 80 86 91 93 93 85 77 73 72 64 58 51 62 78 91 90 100 98 97 90 86 95 95 97 96 96 96 97 99 98 97 98
28 35 50 80 89 89 92 87 85 92 91 86 96 96 92 90 82 79 81 78 70 59 57 69 82 90 100 97 99 99 96 94 91 87 91 94 97 97 95 98 84 95 100
30 39 63 87 92 98 93 99 100 97 98 97 92 96 95 88 84 85 86 81 76 68 70 74 85 95 100 100 100 97 96 98 94 95 94 95 96 96 97 97 93 85 81
37 51 76 91 96 95 89 99 96 98 97 96 96 96 92 86 85 86 87 84 83 69 72 74 84 100 100 100 96 100 98 96 96 95 94 93 93 93 95 96 97 96 95
46 62 69 86 98 96 100 98 98 98 97 95 97 93 88 89 88 87 91 79 65 64 69 66 72 83 86 88 93 96 96 94 95 94 95 94 94 92 91 91 96 97 96
61 80 90 100 99 90 100 98 97 95 97 98 97 93 91 92 90 87 87 76 64 56 65 38 44 82 84 85 80 91 95 95 96 96 95 95 95 95 96 96 95 96 96
76 95 93 96 96 89 98 96 95 100 99 96 100 95 93 89 88 86 94 80 74 54 63 32 18 52 70 57 44 56 64 67 80 95 94 95 96 96 96 96 96 95 97
88 93 93 96 90 91 94 93 96 100 98 97 97 95 92 90 87 87 86 81 79 59 65 44 16 25 33 41 37 35 26 31 61 94 96 96 96 96 95 96 96 96 97
100 97 95 100 99 91 89 92 88 94 98 99 99 93 93 89 90 89 85 83 84 70 61 62 18 17 19 24 30 27 22 22 37 92 96 95 96 97 96 95 95 96 96
100 100 98 99 100 96 100 97 95 94 95 96 95 96 93 96 94 87 87 88 90 80 53 66 42 17 17 18 22 22 22 21 26 65 91 94 95 94 93 92 92 93 95
100 100 100 100 97 98 98 99 97 97 96 99 96 94 96 100 95 90 92 91 91 88 60 52 64 40 19 18 20 22 25 24 21 29 55 60 70 84 95 96 96 96 90
100 100 100 100 96 94 98 98 97 98 97 94 94 94 99 100 93 94 92 90 89 88 76 52 46 54 44 28 22 23 26 27 24 21 32 42 45 52 75 79 81 82 73
100 100 95 100 84 89 96 100 100 96 97 97 94 93 99 99 94 94 93 93 89 86 79 59 46 39 31 30 41 42 32 30 28 22 21 27 29 29 50 51 60 69 46
98 98 98 99 97 96 94 93 95 92 94 95 92 94 98 98 94 93 94 93 93 88 86 67 46 44 44 31 27 27 29 35 35 25 21 21 20 20 20 25 29 27 36
99 96 91 96 100 100 100 97 97 96 94 92 92 93 98 97 96 94 92 93 96 94 92 86 62 47 55 61 54 39 30 57 73 49 22 19 16 16 17 18 18 19 20
96 93 98 97 97 96 95 95 95 97 97 95 92 94 91 91 92 93 96 90 88 92 93 90 85 60 56 77 85 89 80 85 64 42 28 21 17 17 20 25 26 24 24
98 98 97 97 97 97 97 95 96 96 97 95 94 92 94 96 93 95 99 98 94 88 88 88 82 75 64 76 87 88 89 72 53 40 32 24 19 20 24 26 26 26 24
100 100 99 98 97 97 96 96 96 96 96 96 95 93 93 96 95 95 93 100 94 95 89 88 86 82 74 79 87 89 84 61 46 43 37 28 24 24 26 28 27 26 25
Wind_Speed
14 13 18 20 20 21 20 23 25 23 24 25 22 24 26 24 17 17 19 16 18 19 18 19 18 20 24 28 30 31 33 31 36 45 41 38 35 29 20 22 24 24 23
11 16 20 23 20 21 21 23 22 22 22 24 23 27 25 22 19 19 16 18 17 17 19 21 25 28 31 29 28 28 28 27 29 36 37 34 30 24 20 25 26 24 23
16 18 18 20 24 23 23 22 23 22 22 23 24 30 29 19 16 17 15 17 18 19 23 28 31 29 29 28 27 27 26 24 23 26 31 31 29 23 21 23 25 25 22
16 22 26 26 22 20 24 28 29 29 26 26 29 31 29 16 15 12 16 17 20 24 29 30 28 27 28 28 27 28 26 25 26 27 29 31 29 26 22 23 24 23 24
23 25 23 20 19 25 28 31 30 25 25 27 29 29 25 11 11 15 15 20 25 29 29 27 27 28 27 26 26 26 28 30 28 27 30 28 27 27 24 22 23 22 25
24 22 18 22 26 25 28 31 26 21 21 20 16 15 9 12 12 12 18 26 29 29 29 29 29 30 29 26 27 29 28 26 25 26 27 28 29 28 25 21 22 23 26
22 20 23 25 24 25 31 26 26 19 13 15 11 10 11 11 11 16 24 27 26 27 28 29 30 28 26 25 23 20 20 21 22 24 26 24 25 22 22 23 23 23 24
23 23 23 24 25 27 27 25 23 15 14 13 11 12 11 12 17 22 24 23 24 25 26 26 26 24 21 19 18 21 22 20 20 20 23 26 25 25 25 23 22 23 23
23 23 23 25 27 27 27 23 18 20 15 12 13 10 12 15 21 21 22 22 23 25 24 23 21 20 17 17 20 22 25 23 18 19 20 21 21 21 22 24 24 24 24
27 27 25 24 24 28 26 24 22 18 16 13 10 10 14 19 19 19 19 22 25 26 25 22 19 18 16 19 22 22 21 21 22 21 20 17 17 18 19 21 23 27 23
28 27 22 22 27 26 24 21 16 13 13 12 8 13 18 18 17 17 18 21 24 24 25 24 20 18 19 20 19 18 19 22 20 18 18 15 10 9 8 11 16 22 25
28 26 22 23 24 24 26 17 16 15 10 8 12 15 16 15 15 15 17 20 19 22 25 23 21 19 19 18 18 16 16 16 16 15 15 13 12 12 11 10 9 11 12
28 25 23 21 19 19 16 13 10 10 9 11 13 14 13 13 13 15 17 20 19 22 23 22 20 19 18 17 16 13 14 15 15 13 13 12 12 13 13 11 8 6 13
25 23 23 17 15 15 11 11 10 10 10 12 13 13 12 13 14 14 17 19 20 21 22 20 19 18 16 14 14 13 13 14 15 13 12 13 11 9 8 6 6 5 4
20 20 19 16 12 13 10 10 13 12 14 14 13 13 13 13 13 14 15 17 20 20 20 18 17 16 16 15 15 14 14 14 12 10 11 12 9 7 7 6 5 5 5
18 20 18 10 14 13 15 18 19 12 11 12 13 14 13 13 12 13 15 15 18 19 19 17 17 16 16 16 17 17 16 16 13 10 11 11 10 9 8 7 7 6 5
16 17 15 14 14 16 18 18 16 11 13 14 13 13 13 12 12 13 13 14 17 18 17 15 16 16 15 15 15 16 17 17 15 10 10 11 10 9 8 8 7 6 4
16 14 15 15 17 19 19 18 19 18 17 13 11 13 10 12 12 12 12 14 15 16 15 14 14 15 14 14 14 15 15 15 14 11 10 10 9 9 8 8 8 7 7
19 15 14 17 16 15 18 20 21 16 16 15 14 13 13 13 12 12 12 14 15 15 15 13 13 13 13 13 13 14 15 15 15 13 11 11 10 8 7 8 8 9 10
17 16 16 17 17 17 18 18 16 17 16 15 16 15 14 15 13 13 14 14 14 15 14 13 12 12 12 12 12 13 13 13 13 12 11 11 10 10 9 9 9 9 11
22 21 16 18 17 18 18 18 18 18 16 17 17 14 16 19 17 15 15 14 14 14 14 14 12 11 11 11 11 12 12 14 14 13 12 12 11 10 9 10 9 10 10
22 22 22 21 20 19 17 15 16 17 19 19 18 16 17 18 17 16 16 15 15 15 14 13 12 11 11 11 11 11 11 11 12 12 11 11 10 10 10 9 9 9 9
27 25 23 22 23 21 22 21 20 21 20 19 20 19 19 19 19 18 16 16 17 16 15 14 12 11 11 11 10 10 10 10 11 11 11 10 10 10 10 10 10 10 9
25 25 27 28 24 22 22 23 22 22 23 23 21 21 21 21 21 21 19 17 15 15 15 15 13 12 11 11 11 10 10 10 9 10 10 9 9 9 9 10 10 10 9
24 23 24 26 26 30 29 27 27 26 26 24 25 24 22 22 22 21 19 18 17 15 14 14 13 12 11 11 10 9 8 8 9 9 9 9 8 8 8 9 10 10 10
23 24 24 24 25 26 27 29 31 29 28 26 24 24 23 22 21 20 20 20 18 16 15 14 13 13 12 11 10 9 8 8 8 8 7 7 7 8 7 8 9 10 10
Wind_Direction
318 328 331 331 330 326 320 321 321 315 315 305 301 311 311 302 293 300 301 298 302 306 304 300 297 299 296 293 290 287 284 283 283 287 289 292 292 292 279 272 278 284 284
312 309 311 315 315 318 308 310 316 317 314 303 296 304 306 292 289 296 294 306 313 309 303 302 305 303 298 297 296 294 292 288 283 285 287 290 291 290 269 269 281 284 283
312 312 323 325 324 324 321 328 330 321 318 307 288 297 301 273 289 283 306 310 311 307 307 309 307 305 304 303 302 300 299 295 289 286 287 288 288 287 276 269 277 281 280
325 327 330 332 331 326 326 327 326 322 310 300 292 298 296 282 290 291 302 297 304 308 308 307 306 306 304 304 304 302 299 296 294 291 284 283 287 286 281 277 274 276 278
329 331 334 329 326 327 329 330 327 319 310 305 303 306 281 259 261 300 283 301 306 309 309 307 306 303 300 297 294 295 293 296 295 289 285 291 293 292 284 281 277 279 277
333 335 329 324 327 328 331 331 324 312 306 307 313 328 303 295 301 284 300 308 311 313 311 311 308 305 304 300 295 292 291 292 291 287 285 285 289 290 288 281 278 280 280
330 330 326 326 324 329 330 327 325 312 310 315 320 325 309 301 295 304 308 310 313 313 315 314 311 309 307 306 306 307 304 297 289 288 285 283 285 284 285 283 276 272 271
326 324 323 323 322 325 330 328 331 317 318 319 308 310 303 299 305 308 312 315 316 319 322 320 317 318 324 321 327 320 317 311 308 299 288 285 282 281 277 276 276 274 268
325 322 316 316 316 321 326 324 314 312 305 307 307 295 297 306 309 315 316 318 324 329 329 331 328 321 327 333 318 311 310 314 315 306 301 290 282 279 275 269 263 278 259
326 323 316 311 311 319 318 316 312 302 292 288 290 295 303 307 315 318 320 327 330 331 337 335 328 321 326 318 318 317 319 317 314 316 320 306 290 280 271 263 257 250 257
326 324 319 310 307 308 315 316 308 303 298 291 298 300 306 313 315 317 321 327 330 333 337 335 331 327 322 320 320 319 317 315 316 314 315 325 341 335 323 285 264 255 255
324 321 313 306 307 313 314 310 291 286 287 280 294 305 309 313 317 318 322 328 330 334 336 335 331 327 327 326 325 324 320 321 322 324 322 319 320 321 316 316 292 263 256
322 320 319 311 311 316 321 314 297 286 281 298 304 308 311 315 317 321 322 328 335 338 339 338 334 334 332 331 331 327 327 332 335 335 337 333 324 317 317 305 308 277 258
319 321 327 316 316 318 301 304 292 293 300 302 304 306 313 319 318 322 322 335 338 340 342 344 342 341 337 340 342 338 335 338 342 340 340 337 332 329 338 330 326 337 67
320 327 322 316 312 314 291 302 300 290 290 294 294 305 311 316 317 322 330 331 337 340 342 346 345 349 355 354 357 352 349 345 348 352 354 357 1 6 16 5 354 1 8
316 322 319 310 319 311 302 306 303 297 287 291 292 307 306 306 312 324 329 330 335 340 343 347 352 351 352 356 359 2 2 2 1 3 3 4 9 10 5 2 2 4 11
305 310 306 300 303 308 308 318 313 293 286 285 288 297 298 302 314 321 325 332 336 337 340 347 350 352 351 353 356 1 1 3 1 354 355 358 1 2 0 0 356 353 345
306 302 296 293 293 295 290 305 316 293 291 281 289 295 294 303 312 314 322 329 332 334 336 343 345 348 350 351 353 355 359 358 1 359 350 346 348 350 352 355 352 349 337
300 291 292 292 287 287 291 299 305 286 284 283 291 291 294 300 299 306 311 320 328 329 331 334 337 341 345 347 349 352 353 354 355 354 352 349 346 340 338 340 344 348 340
291 284 283 291 295 287 288 295 291 289 286 279 282 284 289 288 291 294 307 312 318 322 320 326 328 331 335 339 343 347 350 352 352 352 352 353 351 350 345 345 343 347 351
298 287 287 275 289 289 288 287 292 288 282 279 280 283 287 285 291 295 296 302 311 318 314 316 320 322 324 325 330 337 343 349 350 351 352 353 355 358 356 354 355 352 353
310 301 290 284 280 286 288 289 290 285 285 285 282 283 282 285 288 288 292 296 301 306 310 309 312 316 319 319 322 324 333 344 348 349 351 353 355 359 1 5 7 4 10
294 292 298 295 285 280 281 286 288 284 283 287 287 283 282 280 284 286 291 295 290 295 299 301 305 306 312 313 317 320 322 332 336 343 350 353 356 358 2 7 13 15 15
298 291 290 281 287 296 289 286 289 290 288 278 278 280 283 284 284 283 280 289 293 286 289 294 296 298 302 306 310 313 315 322 330 336 344 350 354 357 0 3 4 8 8
307 304 299 290 295 284 284 289 286 286 286 287 276 275 280 285 286 278 270 275 281 289 288 288 289 290 292 296 301 305 308 315 322 329 335 341 345 350 355 359 359 359 1
303 302 301 302 300 296 293 290 291 284 282 284 285 276 274 279 285 278 272 265 268 277 287 287 285 285 284 286 288 291 294 302 311 320 326 334 334 338 343 348 351 352 353